Temperature
19 18 19 19 19 19 19 19 19 19 19 19 19 19 19 19 19 18 18 18 18 18 18 18 18 18 18 18 18 18 18 18 18 18 18 18 17 17 17 17 17 16 17
19 18 19 19 19 19 19 19 19 19 19 19 19 19 19 19 19 18 18 18 18 18 18 18 18 18 18 18 18 18 18 18 18 18 18 17 17 17 17 17 17 17 17
19 18 19 19 19 19 19 19 19 19 19 19 19 18 18 18 19 18 18 18 18 18 18 18 18 18 18 18 18 18 18 18 18 17 17 17 17 17 17 17 17 17 17
19 18 18 19 19 19 19 19 19 19 19 19 18 18 18 18 18 18 18 18 18 18 18 18 18 18 18 18 18 18 18 18 17 17 17 17 16 17 17 17 17 17 17
19 18 19 19 19 19 19 19 19 19 19 18 18 18 18 18 18 18 18 18 18 18 18 18 18 18 18 18 18 18 18 17 17 17 17 17 16 17 17 17 17 17 16
19 19 18 19 19 19 19 19 19 19 18 18 18 18 18 18 18 18 18 18 18 18 18 18 18 18 18 18 18 18 18 17 17 17 17 16 16 17 17 17 17 17 17
19 19 18 19 19 19 19 19 19 19 18 18 18 18 18 18 18 18 18 18 18 18 18 18 18 18 18 18 18 18 17 17 17 17 16 16 17 17 17 17 17 17 17
19 19 18 19 19 19 19 19 19 19 18 18 18 18 18 18 18 18 18 18 18 18 18 18 17 18 18 18 18 17 17 17 17 17 17 16 17 17 17 17 17 17 16
19 19 18 18 19 19 19 19 18 18 18 18 18 18 18 18 18 18 18 18 18 18 17 17 17 17 17 18 18 17 17 17 18 17 17 16 17 17 17 17 17 16 16
19 19 18 18 18 18 18 18 18 18 18 18 18 18 18 18 18 18 17 18 18 18 17 17 17 17 17 18 18 17 17 17 17 17 17 16 17 17 17 17 17 17 16
18 18 19 18 18 18 18 18 18 18 18 18 18 18 18 17 17 17 17 18 18 17 17 17 17 17 17 17 17 17 17 17 17 17 17 17 17 17 17 17 17 16 16
19 18 19 18 18 18 18 18 18 18 18 18 18 17 17 17 17 17 18 18 18 17 17 17 17 17 17 17 17 17 17 17 17 17 17 17 17 17 17 17 16 16 16
19 19 18 18 18 18 18 18 18 18 18 18 18 17 17 17 17 17 17 17 17 17 17 17 17 17 17 17 17 17 17 17 17 17 17 17 17 17 17 17 17 16 16
19 19 19 18 18 18 18 18 18 18 18 18 18 17 17 17 17 17 17 17 17 17 17 17 17 17 17 17 17 17 17 17 17 17 17 17 17 17 17 17 17 17 16
19 19 19 19 18 18 18 18 18 18 18 18 18 18 17 17 17 17 17 17 17 17 17 17 17 17 17 17 17 17 17 17 17 17 17 17 17 17 17 17 17 17 16
19 19 19 19 19 19 19 18 18 18 18 18 17 17 17 17 17 17 17 17 17 17 17 17 17 17 17 17 17 17 17 17 17 16 17 17 17 17 17 17 17 17 16
20 19 19 19 19 19 19 18 18 18 18 18 17 18 18 17 17 17 17 17 17 17 17 17 17 17 17 17 17 17 17 17 17 16 16 16 16 17 17 17 17 17 17
20 20 20 19 19 19 19 19 18 18 18 18 18 17 18 17 17 17 17 17 17 17 17 17 17 17 17 17 17 17 17 17 17 17 17 16 16 16 17 17 17 17 17
20 20 20 19 20 19 19 19 18 18 18 18 18 18 18 18 18 17 17 17 17 17 17 17 17 17 17 17 17 17 17 17 17 17 17 16 16 16 16 17 17 17 17
20 20 20 20 20 19 19 19 18 18 18 18 18 18 18 18 18 17 18 17 17 17 17 17 17 17 17 17 18 18 17 17 17 17 17 17 17 16 16 16 16 17 17
20 20 20 20 20 20 19 19 19 19 18 18 18 18 18 18 18 18 18 18 17 17 17 17 17 17 17 17 17 18 18 18 18 17 17 17 17 17 17 16 16 16 16
20 20 20 20 20 20 19 19 19 19 18 18 18 18 19 18 18 18 18 18 17 17 17 17 17 17 17 17 17 18 18 18 18 18 18 17 17 17 17 17 17 17 16
21 21 20 20 20 20 19 19 18 19 18 18 18 18 18 18 18 18 18 18 18 17 17 17 17 17 17 17 17 17 18 19 19 19 18 18 18 17 17 17 17 17 17
21 21 21 21 20 20 20 19 19 19 19 19 18 18 18 18 18 18 18 18 18 18 18 17 17 17 17 17 17 17 17 18 18 19 18 18 18 18 18 18 17 17 17
22 21 21 21 21 20 20 20 19 19 19 19 18 18 18 18 18 18 18 18 18 18 18 18 17 17 17 17 17 17 17 17 17 18 18 19 18 18 18 18 18 17 17
22 21 21 21 21 21 20 20 19 19 19 18 18 18 18 18 18 18 18 18 18 18 18 18 18 17 17 17 17 17 17 18 18 18 18 18 19 19 18 18 18 18 17
Wind_Speed
7 11 13 13 14 15 16 17 17 18 18 18 18 18 18 17 18 17 17 18 18 18 18 18 18 18 18 18 18 18 18 18 18 18 18 18 17 17 16 15 15 18 18
11 13 14 14 14 15 16 17 17 18 18 18 18 17 17 17 17 17 17 18 18 19 19 19 19 19 19 19 18 18 18 17 18 18 18 18 17 16 14 13 14 17 17
13 14 15 14 15 16 16 16 17 17 17 17 17 17 17 17 17 17 17 18 19 19 19 19 18 19 19 18 18 17 17 16 16 15 14 16 16 15 15 16 18 17 17
13 14 14 15 15 15 15 16 16 17 17 17 16 17 17 17 17 17 18 18 18 19 18 18 18 18 18 18 17 17 16 15 12 10 11 14 16 16 16 16 16 16 16
13 14 16 15 15 15 15 15 16 16 16 16 16 16 17 17 17 17 18 17 18 18 18 18 18 17 17 17 16 16 15 13 8 8 13 13 15 16 15 15 16 15 15
13 15 16 14 15 15 15 14 15 15 16 16 16 16 16 16 16 17 17 17 17 17 17 17 17 16 16 15 15 14 12 9 8 12 12 13 15 15 15 15 15 15 15
13 14 16 14 14 14 14 14 14 14 15 15 16 16 16 16 16 17 17 17 16 16 17 16 16 15 15 14 14 13 9 3 8 11 11 12 14 15 14 14 14 14 14
13 14 16 15 14 14 13 14 14 14 14 15 15 16 16 16 16 16 17 16 15 15 15 15 15 15 14 14 13 11 8 3 10 11 11 13 14 14 14 14 13 14 14
12 13 14 14 14 13 13 13 13 13 14 14 15 15 16 15 15 16 16 15 15 14 14 14 14 13 13 13 12 10 6 1 7 9 11 12 13 13 13 13 13 13 13
11 11 12 12 12 13 13 13 13 13 13 13 14 14 15 15 15 14 14 14 14 13 13 13 13 12 12 11 11 9 6 4 8 9 9 13 13 12 12 12 13 13 12
10 9 10 11 11 11 12 13 13 12 12 12 12 13 11 11 12 12 14 13 12 12 12 11 11 11 11 11 10 7 6 4 8 7 9 14 12 11 11 11 12 12 12
12 11 9 10 10 10 10 10 9 10 9 8 9 9 8 8 8 11 13 11 11 11 11 10 10 10 7 9 9 7 4 6 7 7 11 13 10 10 11 11 10 10 10
12 11 10 9 8 9 8 8 6 7 7 8 8 7 7 7 7 8 8 10 9 9 8 9 8 5 5 5 4 4 5 5 5 7 11 11 10 10 10 10 9 9 9
12 11 10 10 8 7 6 6 6 6 6 6 7 6 6 5 5 5 4 6 6 6 5 5 4 5 4 4 4 4 4 3 4 6 10 11 9 9 9 10 9 9 8
12 11 10 10 9 8 6 5 6 5 5 6 6 5 5 5 4 5 4 3 4 5 5 3 4 4 3 3 3 3 3 3 4 4 8 10 9 9 9 9 9 9 8
13 12 11 10 9 8 6 5 5 6 5 5 5 5 4 4 4 4 4 3 3 3 3 2 4 3 2 2 2 2 2 3 3 4 5 10 10 9 9 9 9 9 9
13 12 12 11 10 9 8 7 6 6 6 5 5 5 5 5 5 4 3 3 3 3 3 2 2 2 2 2 2 2 2 2 2 3 3 5 9 11 10 9 9 9 9
13 12 12 11 11 10 8 7 6 6 6 5 5 6 6 5 5 4 3 3 3 3 3 3 2 2 1 1 2 2 2 2 3 3 4 5 5 7 12 12 11 10 10
13 13 13 12 11 11 9 8 7 6 5 5 6 5 6 6 6 5 3 3 4 3 3 3 3 2 2 2 2 3 3 3 3 5 5 5 5 5 7 13 13 12 12
13 13 13 12 11 10 9 7 6 7 6 6 6 6 6 7 7 6 5 5 5 4 3 2 2 2 3 3 3 2 3 3 4 5 6 6 6 7 7 7 10 13 15
13 13 13 13 12 10 9 9 8 8 7 6 6 7 8 7 8 7 5 5 5 4 4 4 4 5 5 3 3 4 5 6 6 6 6 6 7 8 8 8 9 8 11
14 14 14 14 13 13 10 8 7 6 6 6 6 6 8 8 9 8 7 6 5 5 6 6 5 5 4 4 4 3 4 4 6 7 7 7 8 8 9 10 10 9 9
16 16 14 15 14 14 12 9 7 6 6 6 7 7 8 9 10 9 8 7 6 7 6 7 7 7 6 5 5 4 3 3 2 4 6 7 7 7 8 8 10 11 12
17 16 15 15 14 14 13 12 12 10 9 8 7 7 7 9 9 9 9 8 7 7 6 8 7 7 7 6 5 6 6 4 4 3 5 6 8 9 9 8 9 11 12
17 16 16 15 15 14 14 13 12 11 9 7 7 7 7 7 9 9 9 8 8 7 8 8 7 8 7 8 6 6 6 6 8 7 6 5 6 7 8 9 8 9 11
15 15 15 16 16 15 15 14 13 12 10 9 9 8 8 7 7 9 9 8 8 8 8 8 8 9 8 8 8 7 7 6 6 7 8 7 6 6 6 7 8 9 10
Wind_Direction
108 105 105 105 103 103 104 104 105 106 107 107 105 105 105 103 102 101 102 102 103 105 107 108 108 109 109 109 108 107 107 107 107 106 106 104 105 107 109 115 117 107 107
117 111 109 108 107 104 105 106 106 106 106 106 105 106 106 104 103 102 102 103 103 103 104 105 106 107 108 109 108 107 108 109 110 111 113 108 105 104 102 96 90 106 111
119 117 116 108 108 106 106 108 107 107 107 107 107 107 106 106 105 104 104 103 102 102 102 103 105 106 107 108 107 107 108 110 114 124 133 116 109 105 103 100 102 110 111
121 121 115 110 109 106 105 107 108 108 108 107 108 107 106 106 105 104 103 103 103 103 103 103 104 104 106 106 106 107 109 113 123 150 121 108 110 107 108 108 110 111 111
121 118 113 114 111 108 107 106 108 108 109 109 107 108 107 107 105 104 104 104 104 105 103 102 102 102 104 105 105 106 109 116 137 123 99 103 105 110 112 112 112 112 111
125 120 116 116 112 110 109 108 107 109 109 109 109 108 107 106 106 105 104 104 104 105 104 103 103 104 106 107 106 108 114 137 152 103 107 108 109 114 114 114 113 112 112
125 121 120 118 113 111 110 109 108 108 111 111 110 110 109 108 106 105 105 105 105 105 105 104 104 105 108 108 108 109 114 144 107 103 104 102 106 114 113 113 112 112 112
127 124 122 121 116 114 113 113 111 110 112 112 111 111 111 109 108 108 108 107 107 106 105 104 105 104 105 106 108 113 125 177 112 106 105 103 109 115 115 115 115 114 114
129 129 130 131 126 119 114 114 114 112 113 114 112 112 111 109 108 108 109 109 109 107 106 106 107 108 109 109 110 112 114 316 104 107 108 106 115 118 119 119 119 117 116
134 133 133 132 132 134 127 119 116 114 115 116 115 115 116 116 114 115 115 111 111 109 109 109 109 111 113 112 113 117 142 201 104 109 105 111 119 122 122 122 123 122 122
142 139 139 136 139 136 130 128 129 123 121 127 122 125 137 128 121 125 105 112 114 113 112 112 115 120 124 122 122 141 179 122 105 98 99 110 123 125 126 126 127 127 127
153 151 149 143 145 140 134 135 140 133 130 129 124 131 125 109 111 111 115 117 119 120 120 118 126 148 160 133 139 179 136 111 110 110 109 121 129 132 131 130 130 131 132
160 158 153 150 152 145 142 144 136 127 128 128 124 126 119 127 125 126 135 137 139 145 135 137 158 138 119 104 120 123 103 107 110 113 120 133 139 140 140 139 140 141 142
166 164 158 155 156 154 147 143 147 142 142 136 134 144 134 129 128 123 132 134 145 135 128 136 123 111 105 115 116 112 118 116 108 107 125 141 150 152 151 151 153 154 155
171 169 165 166 162 160 154 161 153 149 144 135 138 137 141 144 138 127 124 132 142 131 142 137 128 123 125 131 131 123 114 106 114 125 130 150 162 165 165 167 169 169 171
178 175 171 174 169 167 167 168 160 158 152 152 152 142 156 144 136 142 149 146 136 142 128 134 132 140 151 133 137 134 143 128 128 139 144 154 169 177 181 182 182 181 184
182 178 178 177 175 177 178 180 176 173 172 169 157 159 170 162 150 164 155 168 155 147 141 161 142 167 183 168 157 158 159 167 151 152 163 166 169 181 190 194 197 197 198
184 182 184 184 180 182 184 189 187 188 181 181 177 173 178 174 172 185 175 174 161 178 177 172 193 209 194 193 176 188 167 170 187 184 192 195 191 181 186 195 203 207 208
187 185 187 190 185 187 187 191 197 192 198 195 189 186 181 188 190 200 191 171 195 204 207 220 169 221 211 218 210 204 210 203 199 212 208 208 205 208 194 181 199 210 215
189 189 190 191 190 190 192 194 202 200 200 203 199 194 193 196 199 209 200 190 209 214 215 226 214 231 246 236 251 249 242 229 225 219 220 212 207 213 217 202 198 207 213
190 191 193 194 190 193 197 200 200 201 203 203 205 196 200 207 205 213 217 189 214 219 226 229 226 218 227 226 238 243 240 230 227 228 228 227 213 216 218 217 224 220 204
194 194 194 196 195 199 201 205 208 210 208 208 212 199 206 210 212 211 213 211 210 221 226 229 229 242 238 219 241 261 258 235 219 223 219 223 228 220 221 219 222 227 238
197 197 199 199 199 202 202 202 201 199 214 211 212 209 211 214 216 223 219 224 220 226 229 231 229 235 242 236 230 242 262 266 274 215 221 227 226 229 230 227 224 224 229
200 198 200 199 202 202 202 208 207 208 211 213 214 214 212 216 221 222 227 230 230 234 236 237 230 234 241 243 230 232 247 276 277 266 230 222 220 227 235 236 229 223 225
200 198 198 199 202 201 203 207 211 218 220 218 218 220 225 221 226 226 225 230 232 236 239 243 240 236 239 244 244 236 236 238 245 260 267 254 233 230 227 230 234 235 229
199 200 199 198 201 201 203 208 212 219 221 222 223 222 222 223 225 226 226 227 231 236 236 237 239 237 241 245 248 245 242 245 246 249 261 262 256 245 233 235 237 236 236
Height
1527 1527 1526 1526 1527 1527 1528 1528 1529 1530 1531 1532 1533 1534 1535 1536 1537 1538 1539 1541 1542 1543 1544 1545 1546 1548 1549 1550 1552 1553 1554 1555 1556 1557 1559 1560 1561 1562 1563 1564 1566 1566 1567
1529 1529 1529 1530 1530 1531 1531 1532 1533 1533 1535 1535 1537 1538 1539 1540 1541 1542 1543 1544 1545 1546 1547 1548 1550 1551 1552 1553 1554 1556 1557 1558 1559 1560 1561 1562 1563 1565 1566 1567 1568 1569 1569
1531 1531 1532 1533 1533 1534 1535 1536 1536 1537 1538 1539 1540 1541 1542 1543 1544 1545 1546 1548 1548 1549 1550 1552 1553 1554 1555 1556 1557 1558 1560 1561 1562 1563 1565 1567 1566 1567 1568 1569 1570 1571 1572
1534 1535 1535 1535 1537 1537 1538 1539 1540 1541 1542 1543 1544 1545 1546 1547 1548 1549 1550 1551 1552 1553 1554 1555 1556 1557 1558 1559 1560 1561 1562 1564 1565 1567 1570 1570 1570 1569 1571 1571 1572 1573 1574
1536 1537 1537 1538 1540 1540 1541 1542 1543 1544 1545 1546 1547 1548 1549 1550 1551 1552 1553 1554 1555 1556 1557 1558 1559 1560 1561 1562 1563 1564 1565 1567 1568 1570 1571 1572 1572 1572 1573 1574 1575 1576 1577
1539 1541 1540 1541 1542 1543 1544 1545 1546 1547 1548 1549 1550 1551 1552 1553 1554 1555 1556 1557 1558 1559 1560 1561 1562 1563 1564 1565 1566 1567 1568 1569 1572 1574 1574 1574 1574 1574 1575 1576 1577 1578 1579
1542 1543 1543 1544 1545 1546 1547 1548 1549 1550 1551 1552 1553 1555 1555 1556 1557 1558 1559 1560 1562 1562 1563 1564 1565 1566 1567 1568 1568 1569 1570 1572 1576 1576 1576 1576 1576 1576 1578 1579 1579 1580 1581
1544 1545 1545 1546 1547 1549 1550 1551 1552 1553 1554 1555 1556 1558 1558 1559 1560 1561 1562 1563 1564 1565 1566 1567 1568 1569 1570 1570 1571 1572 1573 1574 1577 1578 1578 1578 1578 1579 1580 1581 1581 1582 1583
1546 1548 1548 1549 1550 1551 1553 1554 1555 1556 1557 1558 1559 1560 1561 1562 1563 1564 1565 1566 1567 1568 1569 1570 1571 1571 1572 1573 1573 1574 1575 1576 1580 1580 1581 1580 1580 1581 1582 1582 1583 1584 1585
1547 1549 1551 1552 1553 1555 1555 1556 1558 1559 1560 1561 1562 1563 1564 1565 1566 1567 1568 1569 1570 1571 1571 1572 1573 1574 1574 1575 1576 1577 1578 1579 1582 1582 1582 1581 1581 1582 1583 1584 1585 1586 1587
1548 1550 1553 1554 1555 1557 1559 1559 1560 1561 1562 1563 1564 1565 1567 1569 1569 1570 1570 1571 1572 1573 1574 1575 1575 1576 1577 1577 1578 1579 1580 1583 1583 1584 1584 1583 1583 1584 1585 1586 1587 1588 1589
1549 1551 1553 1555 1557 1559 1561 1561 1563 1564 1564 1566 1567 1568 1570 1570 1572 1573 1572 1573 1574 1575 1576 1577 1578 1578 1579 1580 1580 1581 1583 1584 1585 1585 1584 1584 1585 1585 1586 1587 1588 1589 1590
1549 1552 1554 1555 1558 1560 1562 1563 1565 1566 1566 1567 1568 1569 1571 1572 1574 1575 1575 1575 1576 1577 1579 1579 1580 1582 1582 1582 1583 1584 1585 1586 1586 1587 1585 1585 1586 1587 1587 1588 1589 1590 1591
1550 1552 1554 1556 1557 1560 1562 1564 1565 1567 1568 1569 1569 1571 1572 1574 1575 1576 1577 1578 1579 1580 1580 1581 1582 1583 1583 1584 1584 1585 1586 1587 1587 1587 1586 1586 1587 1587 1588 1589 1590 1591 1591
1549 1552 1554 1556 1558 1559 1561 1564 1566 1568 1569 1569 1570 1571 1573 1575 1576 1577 1578 1578 1580 1581 1582 1582 1583 1583 1584 1584 1585 1586 1586 1587 1587 1588 1587 1586 1587 1588 1589 1589 1590 1591 1592
1549 1551 1553 1556 1557 1559 1561 1563 1566 1568 1568 1570 1571 1572 1573 1575 1576 1577 1578 1579 1581 1582 1583 1583 1584 1584 1585 1585 1585 1586 1587 1587 1587 1588 1588 1587 1587 1588 1589 1589 1590 1591 1592
1549 1551 1553 1555 1557 1559 1562 1564 1566 1568 1569 1570 1571 1572 1573 1575 1576 1577 1579 1580 1581 1582 1582 1583 1584 1585 1585 1586 1586 1586 1587 1587 1588 1587 1588 1588 1588 1588 1588 1589 1589 1590 1591
1548 1550 1552 1555 1557 1559 1561 1563 1566 1568 1569 1570 1571 1572 1573 1574 1575 1577 1579 1581 1581 1582 1583 1583 1584 1585 1586 1586 1586 1587 1587 1587 1587 1587 1588 1588 1589 1589 1588 1588 1589 1589 1590
1546 1549 1551 1554 1556 1559 1561 1562 1564 1566 1568 1570 1571 1572 1573 1574 1575 1577 1578 1579 1580 1582 1583 1584 1584 1585 1586 1586 1586 1586 1587 1587 1586 1587 1587 1587 1587 1588 1588 1587 1588 1588 1589
1544 1547 1550 1552 1555 1557 1559 1561 1563 1565 1566 1568 1570 1570 1572 1573 1574 1576 1577 1578 1580 1581 1582 1583 1583 1583 1584 1585 1586 1586 1586 1586 1586 1586 1586 1586 1586 1586 1587 1587 1587 1587 1587
1542 1545 1547 1551 1553 1555 1558 1560 1562 1564 1565 1567 1568 1569 1570 1572 1573 1575 1577 1577 1578 1579 1580 1581 1582 1582 1583 1583 1584 1584 1584 1584 1584 1584 1584 1585 1585 1585 1585 1585 1585 1586 1586
1539 1542 1545 1548 1551 1553 1556 1558 1560 1562 1564 1566 1567 1568 1569 1570 1572 1573 1574 1575 1576 1577 1578 1579 1579 1580 1581 1582 1582 1583 1583 1583 1581 1582 1582 1582 1582 1583 1583 1583 1583 1583 1584
1536 1539 1542 1545 1548 1550 1553 1556 1558 1559 1562 1564 1565 1566 1567 1568 1570 1571 1572 1573 1574 1575 1576 1576 1577 1577 1579 1579 1580 1581 1581 1580 1580 1580 1579 1580 1579 1580 1580 1581 1580 1580 1580
1532 1536 1539 1541 1544 1547 1550 1553 1555 1557 1559 1561 1563 1564 1565 1566 1567 1568 1569 1570 1571 1572 1573 1574 1574 1575 1575 1576 1577 1577 1578 1578 1578 1578 1578 1577 1577 1576 1577 1578 1578 1578 1577
1529 1532 1535 1538 1541 1544 1546 1549 1552 1554 1557 1559 1560 1561 1562 1564 1565 1566 1567 1567 1568 1569 1570 1570 1571 1571 1572 1572 1574 1574 1575 1575 1575 1575 1575 1575 1575 1574 1574 1574 1574 1575 1575
1525 1528 1531 1533 1536 1540 1542 1545 1548 1550 1553 1555 1557 1558 1559 1561 1561 1562 1563 1563 1565 1565 1566 1566 1567 1567 1568 1568 1569 1570 1571 1571 1572 1572 1571 1571 1571 1571 1571 1571 1571 1571 1571